Hourly Data Report for March 02, 2012

All times are specified in Local Standard Time (LST). Add 1 hour to adjust for Daylight Saving Time where and when it is observed.

MIRAMICHI RCS
NEW BRUNSWICK

47°00'34.000" N
65°27'54.000" W
33.00 m
8100989
71744
ACQ

Download Data

Hourly Data (March 2012)
Hourly Data Report for March 2, 2012
TIME Temp Definition
°C
Dew Point Temp Definition
°C
Rel Hum Definition
%
Wind Dir Definition
10's deg

Wind Spd Definition
km/h
Visibility Definition
km
Stn Press Definition
kPa
Hmdx Definition


Wind Chill Definition


Weather Definition


00:00 -12.1 -14.5 82 1 7   101.96   -16 LegendNANA
01:00 -11.9 -14.3 82 1 7   101.96   -16 LegendNANA
02:00 -11.8 -14.3 82 2 7   101.96   -16 LegendNANA
03:00 -11.7 -14.2 82 1 6   101.96   -15 LegendNANA
04:00 -12.0 -14.4 82 1 6   101.94   -16 LegendNANA
05:00 -11.9 -14.1 84 36 6   101.92   -16 LegendNANA
06:00 -11.9 -14.2 83 1 6   101.89   -16 LegendNANA
07:00 -11.9 -14.1 84 35 4   101.92   -14 LegendNANA
08:00 -11.6 -14.1 82 35 6   101.97   -15 LegendNANA
09:00 -10.4 -13.5 78 36 7   102.02   -14 LegendNANA
10:00 -8.8 -12.9 72 3 11   102.01   -14 LegendNANA
11:00 -7.4 -12.1 69 7 7   101.96   -11 LegendNANA
12:00 -7.5 -12.8 66 7 13   101.90   -13 LegendNANA
13:00 -6.0 -12.5 60 7 11   101.84   -11 LegendNANA
14:00 -5.3 -11.1 64 9 11   101.80   -10 LegendNANA
15:00 -5.4 -11.3 63 6 11   101.78   -10 LegendNANA
16:00 -6.6 -11.3 69 9 15   101.79   -13 LegendNANA
17:00 -7.1 -11.6 70 7 17   101.76   -14 LegendNANA
18:00 -8.2 -11.5 77 7 13   101.71   -14 LegendNANA
19:00 -10.5 -12.7 84 6 4   101.74   -13 LegendNANA
20:00 -11.4 -12.8 89 8 2   101.76   -13 LegendNANA
21:00 -13.6 -15.1 88   0   101.72     LegendNANA
22:00 -14.6 -16.5 85 5 2   101.68   -16 LegendNANA
23:00 -14.9 -16.7 86   0   101.62     LegendNANA

Notes on Data Quality.

Legend

  • E = Estimated
  • M = Missing
  • NA = Not Available
Date modified: